Home   Weather   Greeley   Past weeks

Flag for USA Past Weather in Greeley, Colorado, USA — Yesterday and Last 2 Weeks

48 °F


Feels Like: 48 °F
Forecast: 49 / 78 °F
Wind: No wind

Location: Greeley / Weld

Current Time: Oct 28, 2016 at 6:11:31 AM

Latest Report: Oct 28, 2016 at 5:35 AM

Visibility: 10 mi

Pressure: 30.03 "Hg (25.27 "Hg at 1424m altitude)

Humidity: 50%

Dew Point: 30 °F

Location of GreeleyLocation

Past Weather in Greeley — Graph


Greeley Temperature Yesterday

Maximum temperature yesterday: 82 °F (at 3:15 PM)
Minimum temperature yesterday: 34 °F (at 4:35 AM)
Average temperature yesterday: 53 °F

High & Low Weather Summary for the Past Weeks

High84 °F (Oct 16, 1:15 PM)93% (Oct 13, 4:15 AM)30.50 "Hg (Oct 13, 4:15 AM)
Low28 °F (Oct 20, 7:15 AM)11% (Oct 21, 3:15 PM)29.57 "Hg (Oct 17, 7:15 AM)
Average52 °F50%30.07 "Hg
* Reported Oct 13 4:15 AM — Oct 28 4:55 AM, Greeley, Weather by CustomWeather, © 2016

Note: Actual official high and low records may vary slightly from our data, if they occured in-between our weather recording intervals... More about our weather records


Greeley Weather History for the Previous 24 Hours

Scroll right to see more
Time TempWeatherWind HumidityBarometerVisibility
4:55 AM
Fri, Oct 28
45 °FClear.5 mph57%30.03 "Hg10 mi
4:35 AM46 °FClear.6 mph53%30.03 "Hg10 mi
4:15 AM45 °FClear.No wind57%30.02 "Hg10 mi
3:55 AM45 °FClear.No wind57%30.03 "Hg10 mi
3:35 AM46 °FClear.3 mph53%30.03 "Hg10 mi
3:15 AM45 °FClear.3 mph53%30.04 "Hg6 mi
2:55 AM46 °FClear.No wind53%30.03 "Hg10 mi
2:35 AM46 °FClear.6 mph53%30.03 "Hg10 mi
2:15 AM46 °FClear.7 mph53%30.03 "Hg10 mi
1:55 AM46 °FClear.3 mph53%30.03 "Hg10 mi
1:35 AM48 °FClear.5 mph50%30.03 "Hg10 mi
1:15 AM48 °FClear.No wind50%30.03 "Hg10 mi
12:55 AM46 °FClear.8 mph50%30.03 "Hg10 mi
12:35 AM48 °FClear.5 mph50%30.03 "Hg10 mi
12:15 AM48 °FClear.6 mph46%30.03 "Hg10 mi
11:55 PM
Thu, Oct 27
48 °FClear.6 mph46%30.02 "Hg10 mi
11:35 PM48 °FClear.8 mph46%30.02 "Hg10 mi
11:15 PM48 °FClear.6 mph43%30.03 "Hg10 mi
10:55 PM48 °FClear.5 mph46%30.03 "Hg10 mi
10:35 PM48 °FClear.8 mph43%30.03 "Hg10 mi
10:15 PM48 °FClear.5 mph43%30.03 "Hg10 mi
9:55 PM50 °FClear.3 mph43%30.03 "Hg10 mi
9:35 PM54 °FClear.9 mph35%30.03 "Hg10 mi
9:15 PM54 °FClear.6 mph35%30.04 "Hg5 mi
8:55 PM50 °FClear.No wind40%30.04 "Hg5 mi
8:35 PM52 °FClear.No wind41%30.04 "Hg9 mi
8:15 PM52 °FClear.No wind38%30.05 "Hg10 mi
7:55 PM57 °FClear.No wind33%30.06 "Hg5 mi
7:35 PM57 °FClear.No wind33%30.06 "Hg6 mi
6:55 PM64 °FClear.6 mph26%30.06 "Hg10 mi
6:35 PM64 °FClear.5 mph28%30.06 "Hg4 mi
5:55 PM66 °FSunny.7 mph24%30.06 "Hg10 mi
5:35 PM72 °FSunny.7 mph19%30.06 "Hg10 mi
5:15 PM73 °FSunny.7 mph17%30.07 "Hg10 mi
4:55 PM77 °FSunny.7 mph15%30.07 "Hg10 mi
4:35 PM81 °FSunny.9 mph14%30.07 "Hg10 mi
4:15 PM81 °FSunny.13 mph14%30.08 "Hg10 mi
3:55 PM82 °FSunny.10 mph13%30.09 "Hg10 mi
3:35 PM82 °FSunny.13 mph13%30.09 "Hg10 mi
3:15 PM82 °FSunny.8 mph13%30.09 "Hg10 mi
2:55 PM81 °FSunny.10 mph15%30.10 "Hg10 mi
2:35 PM81 °FSunny.9 mph15%30.11 "Hg10 mi
2:15 PM81 °FSunny.8 mph15%30.12 "Hg10 mi
1:55 PM79 °FSunny.8 mph18%30.13 "Hg10 mi
1:35 PM73 °FSunny.3 mph23%30.14 "Hg10 mi
1:15 PM73 °FSunny.7 mph25%30.16 "Hg10 mi
12:55 PM73 °FSunny.7 mph25%30.17 "Hg10 mi
12:35 PM73 °FSunny.6 mph23%30.19 "Hg10 mi
12:15 PM72 °FSunny.3 mph25%30.20 "Hg10 mi
11:55 AM70 °FSunny.5 mph27%30.22 "Hg10 mi
11:35 AM66 °FSunny.5 mph28%30.22 "Hg10 mi
11:15 AM64 °FSunny.No wind30%30.23 "Hg10 mi
10:55 AM63 °FSunny.3 mph34%30.24 "Hg10 mi
10:35 AM57 °FSunny.No wind41%30.25 "Hg10 mi
10:15 AM55 °FSunny.No wind44%30.25 "Hg10 mi
9:55 AM52 °FSunny.No wind50%30.26 "Hg10 mi
9:35 AM48 °FSunny.No wind58%30.26 "Hg10 mi
9:15 AM45 °FSunny.No wind61%30.26 "Hg10 mi
8:55 AM41 °FSunny.No wind70%30.27 "Hg10 mi
8:35 AM37 °FSunny.No wind75%30.27 "Hg10 mi
8:15 AM36 °FSunny.No wind75%30.26 "Hg8 mi
7:55 AM34 °FSunny.No wind81%30.25 "Hg10 mi
7:35 AM36 °FSunny.No wind75%30.25 "Hg10 mi
7:15 AM36 °FClear.3 mph70%30.25 "Hg10 mi
6:55 AM36 °FClear.6 mph70%30.25 "Hg10 mi
6:35 AM36 °FClear.5 mph70%30.25 "Hg10 mi
6:15 AM36 °FClear.5 mph70%30.25 "Hg10 mi
Weather by CustomWeather, © 2016

See weather overviewHow to use our weather pages